Jackson, WY

11:20 PM MDT on July 24, 2017 (GMT -0600)
Jackson Hole

Weather History for KJAC - July, 2013

Change the Weather History Date:

Monday, July 15, 2013

  Actual Average Record
Temperature  
Mean Temperature 63 °F -  
Max Temperature 84 °F 80 °F 91 °F (2006)
Min Temperature 42 °F 39 °F 32 °F (1976)
Degree Days  
Heating Degree Days 2    
Growing Degree Days 13 (Base 50)    
Moisture  
Dew Point 43 °F    
Average Humidity 59    
Maximum Humidity 100    
Minimum Humidity 13    
Precipitation  
Precipitation 0.00 in - - ()
Sea Level Pressure  
Sea Level Pressure 30.21 in    
Wind  
Wind Speed 4 mph (North)    
Max Wind Speed 14 mph    
Max Gust Speed 18 mph    
Visibility 10 miles    
Events      
Averages and records for this station are not official NWS values.
T = Trace of Precipitation, MM = Missing Value Source: NWS Daily Summary

Daily Weather History Graph

Daily Weather History Graph

Search for Another Location

Airport or City:

Trip Planner

Search our weather history database for the weather conditions in past years. The results will help you decide how hot, cold, wet, or windy it might be!

Date:

Astronomy

Jul. 15, 2013 Rise Set
Actual Time 5:55 AM MDT 9:01 PM MDT
Civil Twilight 5:21 AM MDT 9:36 PM MDT
Nautical Twilight 4:36 AM MDT 10:20 PM MDT
Astronomical Twilight 3:43 AM MDT 11:13 PM MDT
Moon 1:34 PM MDT (7/15) 12:01 AM MDT (7/15)
Length of Visible Light 16h 15m
Length of Day
15h 06m
Waxing Crescent, 46% of the Moon is Illuminated
Jul 15
Waxing Crescent
Jul 15
First Quarter
Jul 22
Full
Jul 29
Last Quarter
Aug 6
New

Hourly Weather History & Observations

Time (MDT) Temp. Windchill Dew Point Humidity Pressure Visibility Wind Dir Wind Speed Gust Speed Precip Events Conditions
12:15 AM 53.6 °F - 44.6 °F 72% 30.24 in 10.0 mi North 5.8 mph - N/A   Clear
12:55 AM 55.4 °F - 46.4 °F 72% 30.25 in 10.0 mi North 4.6 mph - N/A   Clear
1:15 AM 51.8 °F - 46.4 °F 82% 30.25 in 10.0 mi NW 3.5 mph - N/A   Clear
1:35 AM 55.4 °F - 46.4 °F 72% 30.25 in 10.0 mi Calm Calm - N/A   Clear
1:55 AM 53.6 °F - 46.4 °F 77% 30.25 in 10.0 mi North 4.6 mph - N/A   Clear
2:15 AM 50.0 °F - 46.4 °F 87% 30.25 in 10.0 mi North 6.9 mph - N/A   Clear
2:35 AM 48.2 °F - 44.6 °F 87% 30.25 in 10.0 mi NNE 5.8 mph - N/A   Clear
2:55 AM 48.2 °F - 44.6 °F 87% 30.26 in 10.0 mi North 4.6 mph - N/A   Clear
3:15 AM 48.2 °F - 44.6 °F 87% 30.26 in 10.0 mi Calm Calm - N/A   Clear
3:35 AM 48.2 °F - 44.6 °F 87% 30.26 in 10.0 mi Calm Calm - N/A   Clear
3:55 AM 51.8 °F - 44.6 °F 76% 30.26 in 10.0 mi Calm Calm - N/A   Clear
4:15 AM 50.0 °F - 44.6 °F 82% 30.26 in 10.0 mi Calm Calm - N/A   Clear
4:35 AM 48.2 °F - 42.8 °F 82% 30.27 in 10.0 mi Calm Calm - N/A   Clear
4:55 AM 46.4 °F 44.3 °F 42.8 °F 87% 30.27 in 10.0 mi North 4.6 mph - N/A   Clear
5:15 AM 44.6 °F 43.1 °F 42.8 °F 93% 30.27 in 10.0 mi NNE 3.5 mph - N/A   Clear
5:35 AM 44.6 °F 43.1 °F 41.0 °F 87% 30.27 in 10.0 mi NNE 3.5 mph - N/A   Clear
5:55 AM 42.8 °F 39.3 °F 41.0 °F 93% 30.27 in 10.0 mi North 5.8 mph - N/A   Clear
6:15 AM 42.8 °F 40.1 °F 42.8 °F 100% 30.28 in 10.0 mi North 4.6 mph - N/A   Clear
6:35 AM 44.6 °F 43.1 °F 41.0 °F 87% 30.28 in 10.0 mi NNE 3.5 mph - N/A   Clear
6:51 AM 46.4 °F - 42.8 °F 87% 30.28 in 10.0 mi Calm Calm - N/A   Clear
7:54 AM 53.6 °F - 44.6 °F 72% 30.28 in 10.0 mi Calm Calm - N/A   Clear
8:53 AM 57.2 °F - 46.4 °F 67% 30.28 in 10.0 mi Calm Calm - N/A   Clear
9:55 AM 64.4 °F - 46.4 °F 52% 30.26 in 10.0 mi Calm Calm - N/A   Clear
10:55 AM 69.8 °F - 42.8 °F 38% 30.24 in 10.0 mi Calm Calm - N/A   Clear
11:58 AM 73.4 °F - 44.6 °F 36% 30.23 in 10.0 mi Calm Calm - N/A   Clear
12:53 PM 78.8 °F - 42.8 °F 28% 30.21 in 10.0 mi South 6.9 mph - N/A   Clear
1:55 PM 84.2 °F - 28.4 °F 13% 30.18 in 10.0 mi SSE 11.5 mph - N/A   Clear
2:53 PM 84.2 °F - 33.8 °F 16% 30.17 in 10.0 mi South 5.8 mph - N/A   Clear
3:51 PM 82.4 °F - 37.4 °F 20% 30.16 in 10.0 mi West 13.8 mph 18.4 mph N/A   Clear
4:51 PM 80.6 °F - 33.8 °F 18% 30.15 in 10.0 mi West 13.8 mph - N/A   Clear
5:53 PM 82.4 °F - 33.8 °F 17% 30.13 in 10.0 mi South 5.8 mph - N/A   Clear
6:51 PM 82.4 °F - 33.8 °F 17% 30.12 in 10.0 mi Calm Calm - N/A   Clear
7:54 PM 80.6 °F - 42.8 °F 26% 30.12 in 10.0 mi West 4.6 mph - N/A   Clear
8:52 PM 75.2 °F - 44.6 °F 34% 30.12 in 10.0 mi Calm Calm - N/A   Clear
9:15 PM 75.2 °F - 41.0 °F 29% 30.12 in 10.0 mi Calm Calm - N/A   Partly Cloudy
9:35 PM 71.6 °F - 42.8 °F 35% 30.13 in 10.0 mi East 5.8 mph - N/A   Clear
9:55 PM 71.6 °F - 42.8 °F 35% 30.14 in 10.0 mi Calm Calm - N/A   Clear
10:15 PM 69.8 °F - 44.6 °F 40% 30.15 in 10.0 mi North 4.6 mph - N/A   Clear
10:35 PM 66.2 °F - 46.4 °F 49% 30.15 in 10.0 mi NNE 4.6 mph - N/A   Clear
10:55 PM 66.2 °F - 44.6 °F 46% 30.15 in 10.0 mi North 8.1 mph - N/A   Clear
11:15 PM 62.6 °F - 46.4 °F 55% 30.15 in 10.0 mi NNW 5.8 mph - N/A   Clear
11:35 PM 64.4 °F - 44.6 °F 49% 30.15 in 10.0 mi North 4.6 mph - N/A   Clear
11:55 PM 64.4 °F - 41.0 °F 42% 30.16 in 10.0 mi Calm Calm - N/A   Clear